User: anonymous   Login
Location: Nag� el Ma?a??a
(24.0667°N, 32.8833°E)
Time: 17:41:42
(UTC+00:00)
Language:

CZ-2C R/B - Orbit

View from above orbital plane
View from above orbital plane
View from above satellite
View from above satellite

Ground track
Ground track

The orbit data is extracted from the following two-line orbital elements,

1 43173U 18011E   21339.56936210  .00004555  00000-0  12198-3 0  9992
2 43173  34.9893 285.3565 0136036 202.1479 157.3320 15.28432706215393
Epoch (UTC): 05 December 2021 13:39:52
Eccentricity: 0.0136036
inclination: 34.9893°
perigee height: 387 km
apogee height: 574 km
right ascension of ascending node: 285.3565°
argument of perigee: 202.1479°
revolutions per day: 15.28432706
mean anomaly at epoch: 157.3320°
orbit number at epoch: 21539

The dashed part of the orbit path shows where the satellite is in the earth's shadow,  

DLR